Location: Bergnershof
(48.9468°N, 10.9431°E)
Time: 00:34:53
(UTC+00:00)

Cosmos 1844 Rocket - Pass Details

Date: 18 June 2021
Orbit: 823 x 846 km, 71.0° (Epoch: 30 July)

Event Time Altitude Azimuth Distance (km) Brightness Sun altitude
Rises 21:44:02 0° 322° (NW) 3,413 7.4 -14.7°
Reaches altitude 10° 21:46:59 10° 308° (NW) 2,475 6.1 -14.9°
Maximum altitude 21:51:14 22° 259° (W) 1,761 4.5 -15.1°
Drops below altitude 10° 21:55:29 10° 210° (SSW) 2,463 4.7 -15.3°
Enters shadow 21:55:36 10° 209° (SSW) 2,498 4.8 -15.4°
